Simultaneous Nadir Overpasses (SNOs) Predictions

Prediction of SNOs between GOES-16 and METOP-C Satellite Orbit:

Table of predicted SNOs for the next 14.0 days since TLE Epoch: 2/28/2025
Index Date Time (GOES-16) GOES-16 Lat,Lon METOP-C Lat,Lon Distance(km) Time Diff (sec)
1 03/02/2025 02:47:00 -0.04, -75.19 -0.82, -78.55 383.52 80
2 03/03/2025 02:23:40 -0.04, -75.19 0.31, -73.55 186.51 80
3 03/04/2025 14:43:09 0.04, -75.23 0.69, -78.11 327.71 40
4 03/05/2025 14:21:49 0.03, -75.24 -0.44, -73.11 242.62 80
5 03/07/2025 02:43:27 -0.04, -75.22 -0.59, -77.70 282.61 80
6 03/08/2025 02:20:06 -0.03, -75.23 0.55, -72.71 287.86 80
7 03/09/2025 14:38:55 0.04, -75.27 0.49, -77.25 225.55 80
8 03/10/2025 14:20:54 0.04, -75.29 -0.66, -72.26 345.81 80
9 03/12/2025 02:39:52 -0.04, -75.29 -0.40, -76.84 177.43 80
10 03/13/2025 02:16:31 -0.04, -75.30 0.76, -71.85 394.40 80
11 03/14/2025 14:35:19 0.04, -75.37 0.26, -76.40 117.33 80
